Location: Alincthun
(50.7310°N, 1.8022°E)
Time: 14:41:24
(UTC+00:00)

USA 229 DEB - Pass Details

Date: 17 February 2020
Orbit: 988 x 1224 km, 63.4° (Epoch: 26 March)

Event Time Altitude Azimuth Distance (km) Brightness Sun altitude
Exits shadow 03:35:51 47° 156° (SSE) 1,518 4.4 -32.8°
Drops below altitude 10° 03:41:02 10° 147° (SSE) 3,141 6.2 -32.1°
Sets 03:43:50 0° 146° (SE) 4,119 6.9 -31.7°
